TimeEST,TemperatureF,Dew PointF,Humidity,Sea Level PressureIn,VisibilityMPH,Wind Direction,Wind SpeedMPH,Gust SpeedMPH,PrecipitationIn,Events,Conditions,WindDirDegrees,DateUTC
12:15 AM,39.0,31.6,75,30.14,10.0,Calm,Calm,-,N/A,,Overcast,0,2013-01-03 05:15:00
12:35 AM,38.8,32.0,76,30.13,10.0,Calm,Calm,-,N/A,,Overcast,0,2013-01-03 05:35:00
12:55 AM,38.5,32.0,78,30.12,10.0,Calm,Calm,-,N/A,,Overcast,0,2013-01-03 05:55:00
1:15 AM,38.3,32.0,78,30.13,10.0,Calm,Calm,-,N/A,,Overcast,0,2013-01-03 06:15:00
1:35 AM,38.3,32.0,78,30.13,10.0,Calm,Calm,-,N/A,,Overcast,0,2013-01-03 06:35:00
1:55 AM,38.3,32.0,78,30.13,10.0,Calm,Calm,-,N/A,,Overcast,0,2013-01-03 06:55:00
2:15 AM,38.7,32.2,78,30.13,10.0,Calm,Calm,-,N/A,,Overcast,0,2013-01-03 07:15:00
2:35 AM,38.5,31.8,77,30.13,10.0,Calm,Calm,-,N/A,,Overcast,0,2013-01-03 07:35:00
2:55 AM,38.3,32.0,78,30.14,10.0,Calm,Calm,-,N/A,,Overcast,0,2013-01-03 07:55:00
3:15 AM,38.5,31.8,77,30.14,10.0,Calm,Calm,-,N/A,,Overcast,0,2013-01-03 08:15:00
3:35 AM,38.3,32.0,78,30.13,10.0,Calm,Calm,-,N/A,,Overcast,0,2013-01-03 08:35:00
3:55 AM,38.3,32.0,78,30.12,10.0,Calm,Calm,-,N/A,,Overcast,0,2013-01-03 08:55:00
4:15 AM,38.3,32.7,80,30.13,10.0,Calm,Calm,-,N/A,,Overcast,0,2013-01-03 09:15:00
4:35 AM,38.3,32.5,80,30.12,10.0,Calm,Calm,-,N/A,,Overcast,0,2013-01-03 09:35:00
4:55 AM,38.3,32.7,80,30.12,10.0,Calm,Calm,-,N/A,,Overcast,0,2013-01-03 09:55:00
5:15 AM,38.3,32.9,81,30.12,10.0,Calm,Calm,-,N/A,,Overcast,0,2013-01-03 10:15:00
5:35 AM,38.3,32.4,79,30.13,10.0,Calm,Calm,-,N/A,,Overcast,0,2013-01-03 10:35:00
5:55 AM,37.9,32.0,79,30.13,10.0,Calm,Calm,-,N/A,,Overcast,0,2013-01-03 10:55:00
6:15 AM,38.3,32.7,80,30.15,10.0,Calm,Calm,-,N/A,,Overcast,0,2013-01-03 11:15:00
6:35 AM,37.9,32.4,80,30.15,10.0,Calm,Calm,-,N/A,,Overcast,0,2013-01-03 11:35:00
6:55 AM,38.3,32.0,78,30.16,10.0,Calm,Calm,-,N/A,,Overcast,0,2013-01-03 11:55:00
7:15 AM,37.8,32.4,81,30.17,10.0,Calm,Calm,-,N/A,,Overcast,0,2013-01-03 12:15:00
7:35 AM,37.4,32.9,84,30.17,5.0,Calm,Calm,-,N/A,,Overcast,0,2013-01-03 12:35:00
7:55 AM,36.9,33.3,87,30.17,5.0,Calm,Calm,-,N/A,,Overcast,0,2013-01-03 12:55:00
8:35 AM,36.7,32.9,86,30.18,4.0,ENE,3.5,-,N/A,,Overcast,70,2013-01-03 13:35:00
8:55 AM,36.9,33.1,86,30.18,7.0,Calm,Calm,-,N/A,,Overcast,0,2013-01-03 13:55:00
9:15 AM,36.9,33.3,87,30.18,7.0,Calm,Calm,-,N/A,,Overcast,0,2013-01-03 14:15:00
9:35 AM,36.9,33.3,87,30.19,5.0,Calm,Calm,-,N/A,,Overcast,0,2013-01-03 14:35:00
9:55 AM,36.9,33.4,87,30.19,5.0,Calm,Calm,-,N/A,,Overcast,0,2013-01-03 14:55:00
10:15 AM,36.9,33.8,89,30.20,1.8,Calm,Calm,-,N/A,,Overcast,0,2013-01-03 15:15:00
10:35 AM,36.9,33.8,89,30.20,4.0,Calm,Calm,-,N/A,,Overcast,0,2013-01-03 15:35:00
10:55 AM,37.4,34.0,87,30.18,7.0,Calm,Calm,-,N/A,,Overcast,0,2013-01-03 15:55:00
11:15 AM,37.8,34.0,86,30.17,10.0,Calm,Calm,-,N/A,,Overcast,0,2013-01-03 16:15:00
11:35 AM,38.3,34.0,84,30.17,10.0,Calm,Calm,-,N/A,,Overcast,0,2013-01-03 16:35:00
11:55 AM,38.8,34.7,85,30.16,7.0,Calm,Calm,-,N/A,,Overcast,0,2013-01-03 16:55:00
12:35 PM,39.4,35.1,84,30.15,10.0,Calm,Calm,-,N/A,,Overcast,0,2013-01-03 17:35:00
12:55 PM,39.7,35.1,83,30.14,10.0,Calm,Calm,-,N/A,,Overcast,0,2013-01-03 17:55:00
1:15 PM,40.1,35.1,82,30.14,10.0,Calm,Calm,-,N/A,,Overcast,0,2013-01-03 18:15:00
1:35 PM,41.0,35.6,81,30.14,10.0,Calm,Calm,-,N/A,,Overcast,0,2013-01-03 18:35:00
1:55 PM,41.2,35.6,81,30.13,10.0,Calm,Calm,-,N/A,,Mostly Cloudy,0,2013-01-03 18:55:00
2:15 PM,41.7,35.8,79,30.13,10.0,Calm,Calm,-,N/A,,Mostly Cloudy,0,2013-01-03 19:15:00
2:35 PM,42.8,35.2,75,30.12,10.0,Calm,Calm,-,N/A,,Scattered Clouds,0,2013-01-03 19:35:00
2:55 PM,42.8,34.7,73,30.13,10.0,Calm,Calm,-,N/A,,Scattered Clouds,0,2013-01-03 19:55:00
3:35 PM,43.2,34.9,73,30.15,10.0,SW,3.5,-,N/A,,Clear,220,2013-01-03 20:35:00
3:55 PM,42.8,35.6,76,30.15,10.0,Calm,Calm,-,N/A,,Clear,0,2013-01-03 20:55:00
4:15 PM,42.8,35.8,76,30.16,10.0,WSW,3.5,-,N/A,,Clear,240,2013-01-03 21:15:00
4:55 PM,41.9,35.6,78,30.17,10.0,Calm,Calm,-,N/A,,Clear,0,2013-01-03 21:55:00
5:15 PM,41.4,35.8,81,30.17,10.0,Calm,Calm,-,N/A,,Clear,0,2013-01-03 22:15:00
5:35 PM,39.4,34.7,83,30.18,10.0,Calm,Calm,-,N/A,,Clear,0,2013-01-03 22:35:00
5:55 PM,37.6,33.4,85,30.19,10.0,Calm,Calm,-,N/A,,Clear,0,2013-01-03 22:55:00
6:35 PM,34.9,32.0,89,30.20,7.0,Calm,Calm,-,N/A,,Clear,0,2013-01-03 23:35:00
6:55 PM,33.3,30.6,90,30.20,7.0,Calm,Calm,-,N/A,,Clear,0,2013-01-03 23:55:00
7:15 PM,33.1,30.7,91,30.21,7.0,Calm,Calm,-,N/A,,Clear,0,2013-01-04 00:15:00
7:35 PM,32.9,30.0,89,30.22,10.0,Calm,Calm,-,N/A,,Clear,0,2013-01-04 00:35:00
7:55 PM,32.2,29.3,89,30.22,7.0,Calm,Calm,-,N/A,,Clear,0,2013-01-04 00:55:00
8:15 PM,31.8,28.2,87,30.22,10.0,Calm,Calm,-,N/A,,Clear,0,2013-01-04 01:15:00
8:55 PM,30.7,26.6,85,30.22,10.0,Calm,Calm,-,N/A,,Clear,0,2013-01-04 01:55:00
9:15 PM,30.0,26.4,86,30.22,10.0,Calm,Calm,-,N/A,,Clear,0,2013-01-04 02:15:00
9:35 PM,30.2,25.9,84,30.22,10.0,Calm,Calm,-,N/A,,Clear,0,2013-01-04 02:35:00
9:55 PM,31.1,25.5,80,30.22,10.0,Calm,Calm,-,N/A,,Clear,0,2013-01-04 02:55:00
10:15 PM,33.8,23.4,66,30.23,10.0,NW,4.6,-,N/A,,Clear,310,2013-01-04 03:15:00
10:35 PM,35.1,22.6,61,30.23,10.0,NW,5.8,-,N/A,,Clear,310,2013-01-04 03:35:00
10:55 PM,34.5,22.3,61,30.23,10.0,WNW,3.5,-,N/A,,Clear,290,2013-01-04 03:55:00
11:15 PM,35.1,21.6,58,30.23,10.0,WNW,6.9,-,N/A,,Clear,290,2013-01-04 04:15:00
11:35 PM,35.2,21.2,57,30.23,10.0,WNW,6.9,-,N/A,,Clear,300,2013-01-04 04:35:00
11:55 PM,35.1,20.7,56,30.23,10.0,WNW,5.8,-,N/A,,Clear,300,2013-01-04 04:55:00